[[{"header":{"parameterUnit":"m.s-1","parameterCategory":1,"la1":30.2991,"la2":30.254,"lo1":-89.0895,"lo2":-89.0444,"dy":0.0017,"dx":0.0017,"nx":28,"ny":28,"refTime":"2025-12-17T09:00:00:Z","depth":0,"parameterNumber":2,"parameterNumberName":"U-component_of_WINDS"},"data":[0,0,0,0,0,0,0,0,0,0,0,0,0,0,0,0,0,0,0,0,0,0,0,0,0,0,0,0,0,0,0,0,0,0,0,0,0,0,0,0,0,0,0,0,0,0,0,0,0,0,0,0,0,0,0,0,0,0,-5.4929,-5.4929,0,-5.4968,-5.4969,-5.4969,-5.4828,-5.4823,-5.4819,-5.4815,-5.4855,-5.486,-5.4865,0,0,0,0,0,0,0,0,0,0,0,0,0,-5.4733,-5.4737,-5.4929,-5.4929,-5.493,-5.4968,-5.4969,-5.4969,-5.4828,-5.4823,-5.4818,-5.4813,-5.4854,-5.486,-5.4866,0,0,0,0,0,0,0,0,0,0,0,0,0,-5.48,-5.4738,-5.4929,-5.4864,-5.4859,-5.4968,-5.4969,-5.4969,-5.4829,-5.4823,-5.4817,-5.4811,-5.4852,-5.4859,-5.4866,-5.504,0,0,-5.4889,-5.4893,0,0,0,0,0,0,0,0,-5.4796,-5.4807,-5.4873,-5.4869,-5.4863,-5.4886,-5.4914,-5.4993,-5.4831,-5.4841,-5.4815,-5.4808,-5.4871,-5.4876,-5.4898,-5.5042,-5.5043,-5.489,-5.4895,-5.4898,-5.49,0,0,0,0,0,0,0,-5.4792,-5.4804,-5.4944,-5.4874,-5.4868,-5.4833,-5.4836,-5.4928,-5.4891,-5.4839,-5.4829,-5.4836,-5.4867,-5.4891,-5.4898,-5.5044,-5.489,-5.4897,-5.4901,-5.4904,-5.5332,-5.5339,0,0,0,0,0,0,-5.4795,-5.4802,-5.4943,-5.4945,-5.4813,-5.4842,-5.4845,-5.4885,-5.4889,-5.4884,-5.4841,-5.4829,-5.4881,-5.4889,-5.4898,-5.5101,-5.4898,-5.4905,-5.4909,-5.5326,-5.5334,-5.5341,0,0,0,0,0,0,-5.4792,-5.4809,-5.4941,-5.4871,-5.4885,-5.4852,-5.4899,-5.4889,-5.4913,-5.4891,-5.4883,-5.4872,-5.4876,-5.4888,-5.5006,-5.5101,-5.4908,-5.4915,-5.5317,-5.5328,-5.5338,-5.5509,0,0,0,0,0,0,-5.4787,-5.4809,-5.4874,-5.4873,-5.4889,-5.5049,-5.4905,-5.4895,-5.4926,-5.4911,-5.4918,-5.4913,-5.4872,-5.4995,-5.5013,-5.5108,-5.4921,-5.5309,-5.5322,-5.5334,-5.5495,-5.5524,-5.5549,0,0,0,0,0,-5.478,-5.4921,-5.4878,-5.4896,-5.497,-5.5054,-5.5063,-5.5013,-5.4935,-5.5,-5.4986,-5.4913,-5.5088,-5.5009,-5.5027,-5.5126,-5.5302,-5.5318,-5.5333,-5.5483,-5.5518,-5.5548,0,0,0,0,0,0,-5.4933,-5.4919,-5.4872,-5.5017,-5.5038,-5.503,-5.5111,-5.5053,-5.5096,-5.508,-5.5016,-5.5019,-5.5148,-5.5149,-5.5061,-5.5294,-5.5182,-5.5202,-5.5289,-5.5322,-5.5349,-5.5346,-5.4927,0,0,0,0,0,-5.4984,-5.5053,-5.5037,-5.5167,-5.518,-5.5144,-5.5179,-5.5139,-5.5158,-5.5166,-5.516,-5.5182,-5.5241,-5.5282,-5.5335,-5.5495,-5.5494,-5.5572,-5.5599,-5.5621,-5.5639,-5.5723,-5.5757,-5.5392,-5.5392,-5.5392,0,0,-5.5089,-5.509,-5.5138,-5.5197,-5.5209,-5.5282,-5.5152,-5.5235,-5.5289,-5.5178,-5.5289,-5.5286,-5.5306,-5.5446,-5.5507,-5.545,-5.574,-5.5641,-5.5659,-5.5664,-5.5743,-5.5777,-5.5808,-5.5402,-5.5401,-5.5399,0,0,-5.5318,-5.5326,-5.5434,-5.5449,-5.5468,-5.5444,-5.5471,-5.5472,-5.5466,-5.5576,-5.5495,-5.5558,-5.5662,-5.568,-5.5703,-5.594,-5.5875,-5.596,-5.6101,-5.6184,-5.6213,-5.6238,-5.6322,-5.6353,-5.5978,-5.5978,-5.5978,0,-5.5446,-5.5553,-5.5497,-5.5586,-5.5615,-5.5519,-5.5628,-5.5645,-5.5682,-5.5704,-5.564,-5.5769,-5.5776,-5.5918,-5.5976,-5.5998,-5.6026,-5.5958,-5.6213,-5.6238,-5.626,-5.634,-5.6372,-5.5988,-5.5987,-5.5986,-5.5985,0,-5.5709,-5.5785,-5.587,-5.5908,-5.5946,-5.6046,-5.6005,-5.6051,-5.6008,-5.5991,-5.6105,-5.611,-5.6163,-5.6194,-5.6153,-5.6331,-5.6295,-5.6224,-5.6109,-5.6306,-5.638,-5.641,-5.6003,-5.5999,-5.5996,-5.5994,0,0,-5.6033,-5.6041,-5.6073,-5.6089,-5.6104,-5.6162,-5.6257,-5.6309,-5.6349,-5.6378,-5.6456,-5.6547,-5.6481,-5.6507,-5.6467,-5.6541,-5.6728,-5.6459,-5.6459,-5.6509,-5.6925,-5.6978,-5.7014,-5.6686,-5.6691,-5.6696,-5.6923,0,-5.6258,-5.642,-5.6373,-5.6536,-5.6605,-5.6516,-5.6599,-5.6618,-5.6605,-5.6662,-5.6647,-5.6712,-5.662,-5.6635,-5.6704,-5.6691,-5.6811,-5.6674,-5.6757,-5.6761,-5.6754,-5.7053,-5.7109,-5.7323,-5.6952,-5.6956,-5.696,0,-5.654,-5.6581,-5.6751,-5.6755,-5.6782,-5.6857,-5.6902,-5.6958,-5.6978,-5.6963,-5.6993,-5.6939,-5.7032,-5.6919,-5.7047,-5.6955,-5.6987,-5.6986,-5.6993,-5.6998,-5.6872,-5.7065,-5.7391,-5.7423,-5.7005,-5.7001,-5.6998,0,-5.6759,-5.6856,-5.697,-5.6987,-5.6995,-5.705,-5.7056,-5.707,-5.7104,-5.7144,-5.7165,-5.7216,-5.7243,-5.7283,-5.7244,-5.7165,-5.7378,-5.7261,-5.7368,-5.737,-5.7416,-5.7414,-5.775,-5.7439,-5.7438,-5.7438,-5.7437,0,-5.7013,-5.7121,-5.7068,-5.7139,-5.7256,-5.7203,-5.7321,-5.7317,-5.733,-5.7398,-5.7324,-5.739,-5.7334,-5.7395,-5.7365,-5.7476,-5.7489,-5.748,-5.747,-5.7486,-5.7487,-5.7504,-5.7488,-5.7446,-5.7444,-5.7443,-5.7441,0,-5.7277,-5.7246,-5.7365,-5.7363,-5.7366,-5.7453,-5.7451,-5.7516,-5.7499,-5.7586,-5.7603,-5.7576,-5.7643,-5.7609,-5.7679,-5.7659,-5.7802,-5.7773,-5.7795,-5.7787,-5.7896,-5.7886,-5.8255,-5.83,-5.7961,-5.7964,-5.7967,0,-5.744,-5.7521,-5.7529,-5.7569,-5.758,-5.7646,-5.7681,-5.7633,-5.7672,-5.7702,-5.7764,-5.7825,-5.7871,-5.7984,-5.797,-5.8024,-5.7995,-5.8121,-5.8002,-5.8016,-5.7996,-5.7991,-5.7999,-5.8144,-5.8148,-5.8151,-5.8154,0,-5.7734,-5.7715,-5.7768,-5.7818,-5.7863,-5.7899,-5.7929,-5.7967,-5.7919,-5.7967,-5.8036,-5.8072,-5.8144,-5.8206,-5.8253,-5.8259,-5.82,-5.8192,-5.8219,-5.8235,-5.8244,-5.824,-5.7859,-5.8183,-5.818,-5.8178,-5.8176,-5.8175,-5.7951,-5.8019,-5.8035,-5.8098,-5.8116,-5.8146,-5.8207,-5.8198,-5.8254,-5.8309,-5.8277,-5.8358,-5.8377,-5.8433,-5.8448,-5.851,-5.846,-5.85,-5.851,-5.852,-5.8534,-5.8236,-5.8518,-5.8518,-5.8517,-5.8516,-5.8515,0,-5.824,-5.8246,-5.8305,-5.835,-5.84,-5.834,-5.8371,-5.8416,-5.8488,-5.8511,-5.8558,-5.8638,-5.8698,-5.869,-5.8745,-5.8797,-5.8771,-5.8813,-5.8808,-5.881,-5.8576,-5.8547,-5.8833,-5.8833,-5.8833,-5.8833,-5.8833,-5.8833,-5.8395,-5.8506,-5.8491,-5.861,-5.8616,-5.8694,-5.8717,-5.8745,-5.8763,-5.8855,-5.8905,-5.89,-5.891,-5.8966,-5.9019,-5.9015,-5.9038,-5.9091,-5.9077,-5.8858,-5.8826,-5.8796,-5.8768,-5.9096,-5.9097,-5.9305,-5.9307,-5.9308]},{"header":{"parameterUnit":"m.s-1","parameterCategory":1,"la1":30.2991,"la2":30.254,"lo1":-89.0895,"lo2":-89.0444,"dy":0.0017,"dx":0.0017,"nx":28,"ny":28,"refTime":"2025-12-17T09:00:00:Z","depth":0,"parameterNumber":3,"parameterNumberName":"V-component_of_WINDS"},"data":[0,0,0,0,0,0,0,0,0,0,0,0,0,0,0,0,0,0,0,0,0,0,0,0,0,0,0,0,0,0,0,0,0,0,0,0,0,0,0,0,0,0,0,0,0,0,0,0,0,0,0,0,0,0,0,0,0,0,-0.179,-0.179,0,-0.177,-0.1769,-0.1769,-0.1779,-0.1779,-0.178,-0.178,-0.176,-0.1759,-0.1758,0,0,0,0,0,0,0,0,0,0,0,0,0,-0.1837,-0.1836,-0.179,-0.179,-0.179,-0.177,-0.1769,-0.1769,-0.1779,-0.1779,-0.178,-0.178,-0.176,-0.1759,-0.1758,0,0,0,0,0,0,0,0,0,0,0,0,0,-0.1817,-0.1836,-0.179,-0.1792,-0.1792,-0.177,-0.1769,-0.1769,-0.1778,-0.1779,-0.178,-0.1781,-0.1761,-0.1759,-0.1758,-0.1733,0,0,-0.1753,-0.1752,0,0,0,0,0,0,0,0,-0.1818,-0.1815,-0.1792,-0.1792,-0.1792,-0.1778,-0.1778,-0.1757,-0.1778,-0.1784,-0.178,-0.1781,-0.1765,-0.1763,-0.1758,-0.1732,-0.1731,-0.1753,-0.1752,-0.1751,-0.1751,0,0,0,0,0,0,0,-0.1819,-0.1816,-0.1782,-0.1792,-0.1792,-0.1794,-0.1792,-0.1774,-0.177,-0.1783,-0.1784,-0.1781,-0.1765,-0.1759,-0.1757,-0.173,-0.1753,-0.1751,-0.1751,-0.175,-0.168,-0.1679,0,0,0,0,0,0,-0.1821,-0.1817,-0.1783,-0.1782,-0.1807,-0.1792,-0.179,-0.1781,-0.1771,-0.177,-0.1781,-0.1782,-0.1761,-0.1759,-0.1757,-0.1724,-0.1751,-0.175,-0.1749,-0.1681,-0.168,-0.1679,0,0,0,0,0,0,-0.1822,-0.1818,-0.1784,-0.1799,-0.1795,-0.1791,-0.1781,-0.1781,-0.1774,-0.1769,-0.1768,-0.1775,-0.1762,-0.1759,-0.1738,-0.1724,-0.1749,-0.1748,-0.1682,-0.168,-0.1679,-0.1661,0,0,0,0,0,0,-0.1823,-0.1818,-0.1809,-0.1799,-0.1794,-0.1765,-0.178,-0.178,-0.1772,-0.1773,-0.1763,-0.1762,-0.1762,-0.174,-0.1736,-0.1722,-0.1747,-0.1683,-0.1681,-0.168,-0.1663,-0.1659,-0.1656,0,0,0,0,0,-0.1825,-0.1805,-0.1808,-0.1804,-0.1783,-0.1765,-0.1762,-0.1762,-0.1771,-0.1761,-0.1757,-0.1763,-0.1726,-0.1738,-0.1734,-0.1719,-0.1684,-0.1682,-0.168,-0.1665,-0.166,-0.1656,0,0,0,0,0,0,-0.1814,-0.1804,-0.1807,-0.1784,-0.1775,-0.1766,-0.1754,-0.1758,-0.1746,-0.1748,-0.1749,-0.1746,-0.1724,-0.172,-0.1733,-0.1693,-0.1706,-0.1703,-0.1696,-0.1692,-0.1689,-0.169,-0.1745,0,0,0,0,0,-0.1809,-0.1795,-0.1787,-0.1768,-0.1763,-0.1759,-0.1751,-0.1752,-0.1742,-0.1739,-0.1733,-0.1724,-0.171,-0.1701,-0.1688,-0.1663,-0.166,-0.1651,-0.1647,-0.1644,-0.1641,-0.1625,-0.162,-0.1672,-0.1672,-0.1672,0,0,-0.1799,-0.1792,-0.1783,-0.1765,-0.1758,-0.1743,-0.1756,-0.174,-0.1728,-0.1737,-0.1715,-0.1711,-0.1701,-0.1676,-0.1665,-0.1672,-0.1626,-0.1642,-0.164,-0.1638,-0.1622,-0.1617,-0.1613,-0.167,-0.167,-0.1671,0,0,-0.1772,-0.1766,-0.1747,-0.1739,-0.1728,-0.1725,-0.1721,-0.1711,-0.1708,-0.1687,-0.1692,-0.1678,-0.1655,-0.1646,-0.1639,-0.1606,-0.161,-0.1602,-0.1584,-0.1568,-0.1564,-0.156,-0.1547,-0.1542,-0.1599,-0.1599,-0.1599,0,-0.176,-0.1738,-0.1738,-0.172,-0.1712,-0.1717,-0.1698,-0.1691,-0.1676,-0.1669,-0.1677,-0.1646,-0.164,-0.1612,-0.1604,-0.1599,-0.1592,-0.1603,-0.1565,-0.1561,-0.1558,-0.1544,-0.1539,-0.1598,-0.1598,-0.1598,-0.1598,0,-0.1723,-0.1707,-0.1694,-0.1677,-0.1668,-0.165,-0.1646,-0.1636,-0.1637,-0.1633,-0.161,-0.1602,-0.1587,-0.1581,-0.1583,-0.1553,-0.1557,-0.1565,-0.1578,-0.1551,-0.1539,-0.1534,-0.1597,-0.1597,-0.1597,-0.1598,0,0,-0.1689,-0.1672,-0.1667,-0.1659,-0.1645,-0.1633,-0.1615,-0.1598,-0.1589,-0.1578,-0.1561,-0.1541,-0.1547,-0.1538,-0.1539,-0.1525,-0.1496,-0.1534,-0.1534,-0.1526,-0.1461,-0.1454,-0.1448,-0.15,-0.1499,-0.1498,-0.1461,0,-0.166,-0.1627,-0.1625,-0.1595,-0.1579,-0.1583,-0.1566,-0.1556,-0.1552,-0.1537,-0.1533,-0.1517,-0.1527,-0.1522,-0.1508,-0.1503,-0.1483,-0.1506,-0.1483,-0.1482,-0.1484,-0.1442,-0.1435,-0.1401,-0.1456,-0.1456,-0.1455,0,-0.1621,-0.1607,-0.1575,-0.1561,-0.1555,-0.154,-0.1524,-0.151,-0.1498,-0.1496,-0.1485,-0.1487,-0.1467,-0.1481,-0.1453,-0.1468,-0.1459,-0.1454,-0.1453,-0.145,-0.1466,-0.1436,-0.139,-0.1384,-0.1448,-0.1448,-0.1449,0,-0.1597,-0.1571,-0.1547,-0.154,-0.1525,-0.1514,-0.1507,-0.1496,-0.1485,-0.1471,-0.1464,-0.1448,-0.1439,-0.1427,-0.1424,-0.1435,-0.1394,-0.1409,-0.1391,-0.1391,-0.1381,-0.1382,-0.1331,-0.1378,-0.1378,-0.1378,-0.1378,0,-0.1563,-0.1543,-0.1536,-0.1521,-0.1498,-0.1496,-0.1473,-0.1467,-0.1456,-0.144,-0.1443,-0.1428,-0.1425,-0.1409,-0.1407,-0.1382,-0.1379,-0.1375,-0.1375,-0.1374,-0.1374,-0.1367,-0.1369,-0.1377,-0.1377,-0.1377,-0.1378,0,-0.1532,-0.1527,-0.1501,-0.1488,-0.1484,-0.1467,-0.1455,-0.1441,-0.1436,-0.1415,-0.141,-0.1403,-0.1384,-0.138,-0.1358,-0.1356,-0.1326,-0.1329,-0.133,-0.1329,-0.131,-0.1311,-0.1252,-0.1243,-0.1297,-0.1297,-0.1296,0,-0.151,-0.1494,-0.1478,-0.1467,-0.1459,-0.1442,-0.143,-0.1428,-0.1416,-0.1399,-0.1386,-0.1367,-0.1352,-0.1321,-0.1313,-0.1296,-0.1297,-0.1277,-0.1294,-0.1293,-0.1294,-0.1294,-0.1291,-0.1274,-0.1273,-0.1273,-0.1272,0,-0.1471,-0.1468,-0.1452,-0.1434,-0.142,-0.1406,-0.1393,-0.1383,-0.1378,-0.1365,-0.1344,-0.1332,-0.1308,-0.1289,-0.1271,-0.1263,-0.1266,-0.1267,-0.1261,-0.126,-0.126,-0.1257,-0.1319,-0.1268,-0.1269,-0.1269,-0.1269,-0.1269,-0.1442,-0.1427,-0.1413,-0.1394,-0.1383,-0.137,-0.1355,-0.1347,-0.133,-0.131,-0.1309,-0.1287,-0.1273,-0.1248,-0.124,-0.1222,-0.1228,-0.122,-0.1218,-0.1215,-0.1212,-0.1264,-0.1219,-0.1219,-0.1219,-0.1219,-0.1219,0,-0.1401,-0.1392,-0.1374,-0.1354,-0.1339,-0.1343,-0.1327,-0.1314,-0.1294,-0.128,-0.1264,-0.124,-0.122,-0.1211,-0.1191,-0.1178,-0.1179,-0.1173,-0.1173,-0.1171,-0.1209,-0.1215,-0.1172,-0.1172,-0.1172,-0.1172,-0.1172,-0.1172,-0.1378,-0.1352,-0.1347,-0.1315,-0.1306,-0.1283,-0.1274,-0.1261,-0.125,-0.1222,-0.1205,-0.1199,-0.1186,-0.1165,-0.1147,-0.1145,-0.1136,-0.1129,-0.1127,-0.1164,-0.1168,-0.1173,-0.1178,-0.1128,-0.1128,-0.109,-0.1089,-0.1089]}]]